METAR Formatted Surface Weather Observation
Issued by NWS

Home | Current Version | Previous Version | Text Only | Print | Product List | Glossary On
Versions: 1 2 3 4 5 6 7 8 9 10 11 12 13 14 15 16 17 18 19 20
000
SAUS46 KLOX 230057
MTRNID
METAR KNID 230056Z 27004KT 10SM CLR 12/06 A3007 RMK AO2 SLP189
T01220061 $



USA.gov is the U.S. government's official web portal to all federal, state and local government web resources and services.